Renton, WA
on Friday, December 7, 2012

Friday
Previous Day Next Day
Daily Summary
 ActualAverage (KSEA)Record (KSEA)
Temperature
Mean Temperature °F 41°F  
Max Temperature 48°F 46°F 55°F (1962)
Min Temperature 41°F 36°F 18°F (1972)
Degree Days
Heating Degree Days 20 24  
Month to date heating degree days 164  
Since 1 July heating degree days 1347  
Cooling Degree Days 0 0  
Month to date cooling degree days 0  
Year to date cooling degree days 189  
Moisture
Dew Point 39°F   
Average Humidity 79    
Maximum Humidity 86    
Minimum Humidity 69    
Precipitation
Precipitation 0.12 in 0.19 in 0.88 in (1968)
Month to date precipitation 1.35  
Year to date precipitation 33.49  
Snow
Snow 0.00 in in 2.00 in (1966)
Month to date snowfall  
Since 1 July snowfall  
Snow Depth in   
Wind
Wind Speed 7 mph   
Max Wind Speed 14 mph   
Max Gust Speed 24 mph   
Visibility 9 miles   
Events Rain   

Key: T is trace of precipitation, MM is missing value
Source: NWS Daily Summary
Time(PST)TemperatureDew PointHumidity Pressure Visibility Wind DirectionWind SpeedGust SpeedPrecipitationEvents Conditions
12:18 AM 46.4°F 39.2°F 76% 30.10 in 10.0 miles SSE 9.2 mph - N/A   Mostly Cloudy
12:50 AM 46.4°F 39.2°F 76% 30.09 in 10.0 miles SE 6.9 mph - N/A   Overcast
12:53 AM 46.9°F 39.9°F 77% 30.11 in 10.0 miles SE 5.8 mph - N/A   Overcast
1:53 AM 46.9°F 39.0°F 74% 30.10 in 10.0 miles SSE 9.2 mph - 0.00 in Rain Light Rain
2:53 AM 46.0°F 41.0°F 83% 30.09 in 7.0 miles SSE 6.9 mph - 0.02 in Rain Light Rain
3:53 AM 46.0°F 41.0°F 83% 30.07 in 10.0 miles SSE 5.8 mph - 0.00 in   Overcast
4:15 AM 46.4°F 41.0°F 81% 30.04 in 10.0 miles SE 5.8 mph - N/A   Overcast
4:48 AM 46.4°F 41.0°F 81% 30.03 in 10.0 miles Variable 5.8 mph - 0.00 in   Overcast
4:53 AM 46.9°F 41.0°F 80% 30.05 in 10.0 miles SSE 8.1 mph - 0.00 in   Overcast
5:53 AM 46.9°F 41.0°F 80% 30.04 in 10.0 miles SSE 10.4 mph - 0.00 in   Mostly Cloudy
6:13 AM 46.4°F 41.0°F 81% 30.01 in 10.0 miles South 10.4 mph - 0.00 in Rain Light Rain
6:22 AM 46.4°F 41.0°F 81% 30.01 in 10.0 miles SSE 11.5 mph - 0.00 in Rain Light Rain
6:53 AM 46.9°F 41.0°F 80% 30.01 in 10.0 miles SSE 8.1 mph - 0.00 in Rain Light Rain
7:53 AM 48.0°F 41.0°F 77% 29.99 in 10.0 miles SSE 10.4 mph - 0.01 in   Overcast
8:44 AM 48.2°F 39.2°F 71% 29.96 in 10.0 miles South 13.8 mph 24.2 mph N/A   Scattered Clouds
8:53 AM 48.0°F 39.9°F 74% 29.98 in 10.0 miles South 10.4 mph 19.6 mph N/A   Clear
9:37 AM 48.2°F 41.0°F 76% 29.96 in 10.0 miles South 10.4 mph - N/A   Overcast
9:53 AM 48.9°F 41.0°F 74% 29.99 in 10.0 miles South 8.1 mph 19.6 mph N/A   Overcast
10:53 AM 48.9°F 39.9°F 71% 30.00 in 10.0 miles SSW 8.1 mph 18.4 mph N/A   Mostly Cloudy
11:53 AM 48.9°F 39.0°F 69% 29.99 in 10.0 miles Variable 4.6 mph - N/A   Overcast
12:53 PM 48.9°F 39.0°F 69% 30.00 in 10.0 miles WSW 5.8 mph - N/A   Overcast
1:53 PM 45.0°F 39.0°F 80% 30.02 in 5.0 miles North 8.1 mph - 0.01 in Rain Light Rain
1:57 PM 44.6°F 39.2°F 81% 30.01 in 2.5 miles North 6.9 mph - 0.03 in Rain Heavy Rain
2:06 PM 44.6°F 39.2°F 81% 30.01 in 1.8 miles NNW 8.1 mph - 0.05 in Rain Rain
2:11 PM 44.6°F 39.2°F 81% 30.01 in 2.5 miles North 6.9 mph - 0.06 in Rain Rain
2:14 PM 44.6°F 39.2°F 81% 30.01 in 4.0 miles North 5.8 mph - 0.06 in Rain Light Rain
2:53 PM 45.0°F 39.9°F 82% 30.04 in 10.0 miles SE 3.5 mph - 0.07 in   Overcast
3:00 PM 44.6°F 39.2°F 81% 30.03 in 10.0 miles Calm Calm - N/A   Overcast
3:53 PM 45.0°F 39.9°F 82% 30.07 in 10.0 miles Calm Calm - 0.01 in   Overcast
4:53 PM 44.1°F 39.0°F 82% 30.09 in 10.0 miles Calm Calm - N/A   Mostly Cloudy
5:53 PM 43.0°F 39.0°F 86% 30.11 in 10.0 miles Calm Calm - N/A   Partly Cloudy
6:53 PM 42.1°F 37.9°F 85% 30.12 in 10.0 miles Calm Calm - N/A   Clear
7:53 PM 42.1°F 37.9°F 85% 30.12 in 10.0 miles ESE 3.5 mph - N/A   Mostly Cloudy
8:53 PM 42.1°F 37.0°F 82% 30.14 in 10.0 miles SE 3.5 mph - N/A   Overcast
9:53 PM 42.1°F 37.0°F 82% 30.16 in 10.0 miles ESE 3.5 mph - N/A   Scattered Clouds
10:53 PM 41.0°F 36.0°F 82% 30.16 in 10.0 miles ESE 4.6 mph - N/A   Mostly Cloudy
11:53 PM 41.0°F 36.0°F 82% 30.18 in 10.0 miles Calm Calm - N/A   Scattered Clouds
Moon Phase
Dec. 07 Dec. 13 Dec. 20 Dec. 28 Jan. 04
Sunrise:07:43 AM (PST) Moon Rise:12:45 AM (PST)12/7
Sunset:04:17 PM (PST) Moon Set:12:38 PM (PST)12/7

Copyright © 2014 The Weather Underground, Inc.